Flag for U.S.A. Weather past 2 weeks in Greenville, South Carolina, U.S.A.

Now
32 °F

Clear.


Feels Like: 32 °F
Forecast: 28 / 54 °F
Wind: No wind

Location: Greenville Downtown Airport

Current Time: Mar 29, 2015 at 9:07:20 AM

Latest Report: Mar 29, 2015 at 7:53 AM


Visibility: 10 mi

Pressure: 30.41 "Hg

Humidity: 47%

Dew point: 14 °F

Location of GreenvilleLocation

Historic Weather in Greenville — Graph

°F

Greenville temperature yesterday

Maximum temperature yesterday: 54 °F (at 4:53 PM)
Minimum temperature yesterday: 33 °F (at 7:53 AM)
Average temperature yesterday: 42 °F

Past Weeks' High & Low Weather Summary

 TemperatureHumidityPressure
High85 °F (Mar 17, 4:53 PM)97% (Mar 26, 9:00 AM)30.41 "Hg (Mar 26, 9:00 AM)
Low31 °F (Mar 29, 6:53 AM)10% (Mar 16, 4:53 PM)29.65 "Hg (Mar 27, 4:53 AM)
Average58 °F59%30.05 "Hg
* Reported Mar 14 7:53 AM — Mar 29 7:53 AM, Greenville, Weather by CustomWeather, © 2015

Note: Actual official high and low records may vary slightly from our data, if they occured in-between our weather recording intervals... More about our weather records

Advertising

Greenville weather history for previous 24 hours

 ConditionsComfort  
Time TempWeatherWind HumidityBarometerVisibility
7:53 AM
Sun, Mar 29
32 °FClear.No wind47%30.41 "Hg10 mi
6:53 AM31 °FClear.3 mph45%30.37 "Hg10 mi
5:53 AM32 °FClear.7 mph41%30.34 "Hg10 mi
4:53 AM35 °FClear.9 mph35%30.32 "Hg10 mi
3:53 AM36 °FClear.9 mph34%30.31 "Hg10 mi
2:53 AM36 °FClear.9 mph35%30.30 "Hg10 mi
1:53 AM37 °FClear.9 mph34%30.29 "Hg10 mi
12:53 AM39 °FClear.8 mph31%30.28 "Hg10 mi
11:53 PM
Sat, Mar 28
38 °FClear.8 mph36%30.27 "Hg10 mi
10:53 PM40 °FClear.5 mph33%30.24 "Hg10 mi
9:53 PM40 °FClear.7 mph33%30.22 "Hg10 mi
8:53 PM44 °FClear.9 mph26%30.18 "Hg10 mi
7:53 PM46 °FSunny.13 mph23%30.14 "Hg10 mi
6:53 PM50 °FSunny.15 mph20%30.10 "Hg10 mi
5:53 PM51 °FSunny.12 mph19%30.07 "Hg10 mi
4:53 PM54 °FPassing clouds.6 mph19%30.05 "Hg10 mi
3:53 PM52 °FSunny.8 mph20%30.05 "Hg10 mi
2:53 PM51 °FSunny.9 mph23%30.07 "Hg10 mi
1:53 PM49 °FSunny.7 mph26%30.08 "Hg10 mi
12:53 PM46 °FSunny.6 mph27%30.09 "Hg10 mi
11:53 AM44 °FSunny.8 mph28%30.10 "Hg10 mi
10:53 AM40 °FSunny.7 mph36%30.10 "Hg10 mi
9:53 AM39 °FSunny.15 mph39%30.08 "Hg10 mi
Weather by CustomWeather, © 2015

See weather overviewHow to use our weather pages